Vorticity
5 6 6 7 7 6 6 6 6 6 6 8 9 7 6 6 7 6 6 7 8 9 9 9 10 10 11 10 9 9 7 7 6
7 7 7 7 7 6 6 7 7 8 8 8 8 6 5 3 4 3 3 4 3 3 4 5 4 3 2 4 6 6 6 7 8
8 7 7 6 6 6 7 6 7 7 6 5 1 -1 -0 9 13 11 12 11 5 2 3 4 6 6 7 4 6 8 8 6 10
9 9 7 6 6 7 8 8 7 4 1 0 1 1 3 9 12 12 15 21 19 12 10 8 6 5 6 5 4 2 3 3 7
12 10 9 5 6 5 7 6 3 1 -0 -0 1 2 2 7 10 4 4 8 18 20 11 9 6 5 10 12 13 11 14 14 4
8 8 9 8 6 5 6 5 1 1 0 1 2 3 2 -1 7 10 4 2 3 6 14 14 13 7 3 4 6 6 5 4 4
12 12 10 9 8 6 5 4 4 3 3 3 4 3 3 3 2 5 12 3 3 3 2 2 4 5 3 4 7 11 12 12 11
2 5 9 10 10 9 8 5 4 3 3 3 4 6 7 1 3 5 6 12 5 2 3 3 4 1 7 1 8 10 9 11 14
5 1 3 5 7 11 14 12 11 10 12 11 10 8 4 5 4 4 8 5 11 7 2 3 5 5 3 2 8 11 11 10 10
5 6 3 7 5 6 8 10 8 7 6 8 9 11 10 7 5 1 8 5 5 9 11 4 5 6 7 3 2 4 9 11 7
-3 2 3 5 7 6 5 4 5 5 7 8 11 11 13 11 5 9 7 7 9 11 12 10 7 9 9 6 3 2 4 7 12
5 5 8 5 7 9 9 9 6 7 7 10 9 8 10 10 9 9 10 11 14 10 6 5 5 3 3 5 4 4 3 6 8
5 8 7 7 7 6 7 6 7 7 5 11 9 5 7 9 9 10 7 5 6 5 6 5 5 5 3 3 5 5 2 5 9
5 5 5 7 10 9 7 6 8 7 4 9 13 4 5 7 7 4 4 4 4 4 3 3 1 1 3 4 5 5 3 4 9
8 7 6 6 5 8 9 8 8 10 5 5 15 7 2 3 0 -0 1 4 13 4 3 7 7 7 7 6 6 5 3 6 10
5 6 7 5 3 3 6 8 7 11 5 3 11 12 5 5 8 10 7 2 3 6 8 9 7 7 6 6 5 2 5 9 10
4 2 4 6 4 5 4 8 9 10 8 5 6 12 9 6 5 6 5 9 8 9 9 9 8 6 6 5 3 6 9 9 7
9 12 13 6 6 5 6 9 8 8 10 7 4 4 6 7 7 7 6 7 8 9 8 7 6 6 4 3 8 10 8 5 2
4 6 10 12 9 8 8 7 9 9 6 7 7 7 6 6 5 7 11 13 12 12 11 7 5 3 5 10 10 6 2 3 7
5 5 6 11 8 6 5 7 7 8 9 9 9 9 10 10 10 13 13 12 9 5 5 6 6 8 11 7 4 3 6 8 8
Height
5860 5860 5861 5861 5861 5861 5860 5860 5860 5859 5859 5859 5859 5859 5858 5858 5857 5857 5855 5855 5853 5853 5852 5850 5850 5850 5849 5848 5847 5846 5845 5845 5846
5856 5856 5856 5857 5857 5857 5857 5857 5857 5856 5856 5856 5855 5855 5855 5854 5855 5852 5850 5850 5850 5848 5847 5847 5846 5846 5844 5844 5843 5842 5841 5840 5840
5853 5853 5854 5853 5854 5854 5854 5854 5854 5853 5853 5853 5853 5853 5852 5851 5850 5847 5845 5844 5844 5844 5842 5842 5841 5841 5840 5839 5837 5837 5835 5834 5833
5849 5850 5850 5850 5850 5851 5851 5851 5850 5850 5850 5850 5850 5848 5848 5846 5844 5842 5840 5838 5837 5837 5837 5836 5836 5836 5834 5834 5832 5832 5830 5830 5828
5846 5846 5846 5847 5848 5847 5848 5847 5847 5847 5846 5846 5845 5844 5844 5843 5840 5838 5837 5835 5833 5831 5830 5831 5831 5830 5829 5828 5826 5825 5824 5823 5822
5841 5841 5842 5843 5842 5843 5843 5843 5843 5842 5842 5842 5841 5840 5839 5838 5836 5834 5832 5831 5830 5828 5826 5826 5826 5825 5824 5822 5822 5821 5819 5818 5816
5836 5837 5837 5838 5837 5838 5837 5838 5838 5838 5837 5837 5836 5835 5835 5833 5831 5829 5827 5827 5826 5824 5822 5822 5821 5820 5819 5817 5815 5814 5813 5811 5809
5832 5832 5832 5832 5832 5832 5832 5832 5832 5831 5832 5830 5830 5829 5829 5827 5825 5823 5822 5821 5820 5818 5817 5816 5815 5813 5813 5811 5808 5807 5806 5805 5802
5828 5827 5827 5827 5826 5826 5826 5825 5825 5825 5824 5823 5822 5822 5823 5820 5818 5816 5816 5814 5813 5812 5811 5810 5808 5807 5806 5804 5802 5800 5798 5798 5797
5823 5822 5823 5821 5820 5820 5819 5819 5818 5817 5816 5815 5814 5813 5814 5813 5811 5809 5809 5807 5806 5805 5803 5803 5801 5800 5799 5797 5795 5793 5792 5791 5790
5817 5817 5817 5816 5815 5815 5814 5813 5813 5811 5809 5808 5806 5806 5805 5805 5803 5802 5801 5800 5798 5797 5796 5795 5793 5792 5791 5789 5787 5786 5784 5783 5782
5809 5810 5810 5809 5808 5808 5808 5807 5806 5804 5803 5801 5799 5798 5798 5797 5796 5795 5793 5792 5790 5789 5788 5786 5785 5784 5782 5780 5779 5778 5776 5774 5773
5803 5804 5803 5802 5801 5800 5800 5800 5798 5797 5796 5794 5793 5791 5790 5790 5789 5788 5786 5784 5783 5781 5779 5777 5775 5774 5772 5771 5769 5767 5766 5764 5762
5798 5797 5796 5795 5795 5793 5793 5791 5790 5789 5788 5787 5785 5784 5783 5781 5781 5780 5779 5777 5776 5773 5770 5767 5766 5764 5762 5760 5758 5756 5754 5752 5750
5790 5789 5789 5788 5788 5787 5785 5784 5783 5781 5780 5779 5777 5776 5774 5773 5773 5771 5769 5767 5765 5764 5760 5757 5755 5753 5751 5748 5746 5743 5741 5740 5737
5782 5782 5782 5780 5780 5779 5777 5775 5774 5772 5771 5770 5768 5767 5766 5765 5764 5761 5759 5757 5755 5750 5749 5746 5744 5741 5739 5737 5734 5731 5727 5725 5723
5775 5775 5775 5774 5772 5771 5769 5767 5766 5764 5762 5761 5760 5758 5757 5755 5754 5751 5748 5745 5742 5740 5736 5733 5731 5728 5726 5723 5720 5717 5713 5711 5708
5767 5767 5766 5765 5763 5763 5761 5759 5757 5756 5754 5752 5751 5749 5748 5746 5743 5740 5737 5733 5730 5727 5723 5720 5717 5715 5711 5709 5706 5702 5698 5695 5692
5758 5758 5757 5756 5755 5754 5753 5751 5749 5747 5745 5743 5741 5738 5737 5735 5733 5729 5725 5720 5717 5713 5710 5707 5704 5701 5697 5693 5689 5685 5681 5677 5673
5749 5749 5748 5748 5747 5745 5744 5743 5741 5738 5736 5734 5731 5729 5726 5723 5720 5717 5712 5708 5703 5700 5696 5693 5689 5685 5681 5677 5672 5667 5662 5657 5653